Location: Capannuccia
(43.7000°N, 11.3000°E)
Time: 08:52:47
(UTC+00:00)

STARLINK-1312 - Pass Details

Date: 29 September 2020
Orbit: 549 x 550 km, 53.0° (Epoch: 23 October)

Event Time Altitude Azimuth Distance (km) Brightness Sun altitude
Rises 04:23:47 0° 181° (S) 2,700 7.1 -9.2°
Reaches altitude 10° 04:27:12 10° 151° (SSE) 1,813 6.6 -8.6°
Maximum altitude 04:28:54 12° 126° (SE) 1,670 6.9 -8.3°
Drops below altitude 10° 04:30:36 10° 101° (ESE) 1,819 7.7 -8.0°
Sets 04:34:02 0° 72° (ENE) 2,718 9.0 -7.4°
